sat.trackr.live / text

‹ back to catalog

ONEWEB-0348

NORAD 49213 · 2021-083AD

PAYLOAD ACTIVE UNKNOWN

§ Identity

Operator
Country
UK
Launch date
2021-09-14
Launch site
TYMSC
Launch vehicle
Mass (kg)
RCS (m²)

Purposes: comms

External: N2YO · Heavens-Above · Gunter

§ Orbital elements

Epoch: 2026-05-24T18:43:45.960384Z

Period
109.03 min
Inclination
87.9177°
Eccentricity
0.0002307
Mean motion
13.20770549 rev/d
Perigee alt
1,180.0 km
Apogee alt
1,183.5 km
Semi-major
7,559.9 km
B*
1.7191e-7
RAAN
279.1072°
Arg perigee
109.0132°
Mean anomaly
251.1252°
Rev number
23,372

§ Raw data

ONEWEB-03481 49213U 21083AD  26144.78039306  .00000013  00000+0  17191-6 0  99942 49213  87.9177 279.1072 0002307 109.0132 251.1252 13.20770549233729

JSON: /api/v1/satellites/49213 · /tle

For live sub-satellite position, see the globe view (requires WebGL).

§ Visibility from observer

Set your observer location to see the next 7 days of passes ≥ 10°. The values pass through the URL so the page stays shareable.

No JS? Fill the form by hand. The geolocation button needs JavaScript.